Location: Mahannah Oil Field
(37.4664°N, 96.6003°W)
Time: 04:27:48
(UTC+00:00)

deb Explorer IX - Pass Details

Date: 25 June 2021
Orbit: 544 x 1093 km, 38.8° (Epoch: 02 August)

Event Time Altitude Azimuth Distance (km) Brightness Sun altitude
Exits shadow 08:23:42 13° 128° (SE) 1,901 ? -23.5°
Drops below altitude 10° 08:24:49 10° 114° (ESE) 2,049 ? -23.3°
Sets 08:28:02 0° 89° (E) 2,864 ? -23.0°
